Regional Weather Roundup
Issued by NWS

Home | Current Version | Previous Version | Graphics & Text | Print | Product List | Glossary On
Versions: 1 2 3 4 5 6 7 8 9 10 11 12 13 14 15 16 17 18 19 20 21 22 23 24 25 26 27 28 29 30 31 32 33 34 35 36 37 38 39 40 41 42 43 44 45 46 47 48 49 50
000
ASUS45 KCYS 282110
RWRWY

WYOMING REGIONAL WEATHER ROUNDUP
NATIONAL WEATHER SERVICE CHEYENNE WY
300 PM MDT THU AUG 28 2014

NOTE:  "FAIR" INDICATES FEW OR NO CLOUDS BELOW 12,000 FEET
WITH NO SIGNIFICANT WEATHER AND/OR OBSTRUCTIONS TO VISIBILITY.

WYZ001-282200-
YELLOWSTONE NATIONAL PARK

CITY           SKY/WX    TMP DP  RH WIND       PRES   REMARKS
LK YELLOWSTONE   N/A     69  35  28 MISG      30.31F
W YELLOWSTONE  NOT AVBL

$$
WYZ002>013-054>058-071-098>099-282200-
NORTHERN WYOMING

CITY           SKY/WX    TMP DP  RH WIND       PRES   REMARKS
JACKSON        SUNNY     73  37  27 CALM      30.23F
CODY           CLOUDY    79  43  27 E9        30.07F
GREYBULL       SUNNY     86  38  18 N8        30.00F
WORLAND        SUNNY     83  44  25 N6        30.03F
SHERIDAN       SUNNY     86  43  22 N12G29    30.00F
BUFFALO        SUNNY     81  40  23 N16G23    30.06F
GILLETTE       MOSUNNY   82  43  25 N13       30.01F
HULETT         FAIR      81  43  26 MISG      30.01
NEWCASTLE      FAIR      77  45  31 MISG      30.02

$$
WYZ014>020-022>026-101>103-282200-
CENTRAL WYOMING

CITY           SKY/WX    TMP DP  RH WIND       PRES   REMARKS
BIG PINEY      SUNNY     75  37  25 N15       30.27F
PINEDALE       CLEAR     72  36  26 NW14G24   30.26F
DUBOIS         FAIR      73  32  21 N15G22    30.24F
LANDER         SUNNY     80  39  23 MISG      30.13F
RIVERTON       SUNNY     78  36  21 SE10      30.13F
CASPER         MOSUNNY   81  38  21 VRB7      30.10F
DOUGLAS        PTSUNNY   77  47  34 NE9       30.07F

$$
WYZ021-027>030-104>119-282200-
SOUTHERN WYOMING

CITY           SKY/WX    TMP DP  RH WIND       PRES   REMARKS
EVANSTON       MOSUNNY   71  41  33 VRB5      30.32F
KEMMERER       PTCLDY    70  43  37 W15G25    30.31F
FORT BRIDGER   FAIR      72  41  32 NW14      30.33F
ROCK SPRINGS     N/A     73  39  29 NW17G25   30.26F
DIXON          FAIR      69  50  50 SW3       30.28F
RAWLINS        MOSUNNY   73  39  29 NW13      30.22F
SARATOGA       CLOUDY    64  48  55 SE3       30.25F
LARAMIE        PTSUNNY   61  50  67 CALM      30.23F
CHEYENNE       CLOUDY    58  51  78 NW12G21   30.18F
TORRINGTON     CLOUDY    63  59  87 W5        30.07F
PINE BLUFFS    MOCLDY    61  54  77 NW16      30.13F

$$



USA.gov is the U.S. government's official web portal to all federal, state and local government web resources and services.